Temp
6 6 6 6 6 6 6 7 7 7 7 7 7 7 7 7 7 8 8 9 9 9 8 8 9 8 9 8 9 10 9 9 10 11 12 13 13 14 13 13 14 15 15 16 18
6 6 6 6 6 6 6 7 7 7 7 7 7 7 7 6 7 8 9 9 8 8 8 7 6 7 6 7 8 7 7 9 10 10 10 10 9 9 9 10 12 13 14 15 16
6 6 6 6 6 6 6 6 6 6 7 6 7 7 6 6 6 8 8 8 8 8 8 7 7 6 6 7 6 6 6 8 7 8 9 8 8 9 7 8 10 10 10 10 13
6 6 5 6 6 6 6 6 6 6 6 6 6 7 6 6 8 8 8 8 7 7 7 7 6 5 5 5 6 4 5 6 6 7 7 7 7 7 7 7 9 9 9 10 11
6 5 5 5 6 6 6 6 6 6 6 6 6 6 6 4 5 8 8 8 7 7 7 6 5 5 4 4 4 4 4 6 6 6 6 6 6 6 6 8 9 9 10 9 10
5 5 5 5 5 5 6 6 6 6 6 6 6 6 5 5 8 8 8 7 7 7 6 6 5 5 4 4 4 4 4 4 5 5 5 5 5 5 6 7 7 8 9 9 10
5 5 5 5 5 5 5 6 6 6 6 6 6 6 5 5 8 8 8 7 7 7 6 7 6 5 4 3 4 4 3 4 4 5 5 5 4 4 6 7 7 7 8 9 10
5 5 5 5 5 5 5 5 5 5 6 5 6 6 3 7 7 7 7 7 7 7 7 7 7 4 3 4 3 3 3 2 6 5 5 4 3 5 6 6 6 6 6 8 9
5 5 5 5 5 5 5 6 5 5 6 6 6 5 5 7 7 7 7 7 7 7 7 6 5 3 4 3 1 2 2 3 4 6 5 5 4 6 7 6 6 6 6 7 8
5 5 5 5 5 5 5 7 5 6 7 6 6 5 6 5 7 6 7 7 5 4 4 5 3 2 1 -0 -1 3 3 3 3 5 5 4 4 5 6 6 6 6 6 7 7
5 4 5 5 5 4 4 4 1 2 2 2 2 2 2 6 6 6 7 6 5 5 3 3 1 1 3 2 3 3 2 2 3 5 5 4 5 5 5 5 5 6 6 6 7
4 4 4 4 4 4 4 2 2 1 1 2 2 2 3 4 3 4 6 5 4 3 3 0 -1 3 4 4 3 3 2 2 4 5 5 5 5 5 6 6 6 6 6 6 7
4 4 4 4 4 4 2 1 2 2 -2 2 3 4 5 5 4 4 5 5 3 2 1 -1 2 4 4 4 4 3 3 3 3 4 4 4 3 5 6 6 6 6 6 7 6
4 4 4 4 5 3 3 2 2 2 -5 4 5 5 5 3 3 5 6 5 4 -0 1 -2 2 4 3 2 3 1 4 4 3 2 2 4 2 5 6 4 3 4 3 3 3
4 4 4 4 3 2 3 2 2 1 2 5 5 6 4 4 3 5 5 5 2 2 -1 -0 2 2 1 3 4 1 4 2 2 1 1 1 2 3 2 1 1 1 2 2 1
4 4 4 4 3 3 3 2 2 -0 2 4 4 4 3 4 3 4 4 2 2 -1 -1 1 3 1 1 3 3 3 0 1 -3 -5 -5 1 2 2 1 0 -0 0 0 1 2
4 4 4 3 3 3 3 1 -0 1 4 4 4 4 3 2 2 0 -2 -5 -3 -3 -6 1 1 4 3 -2 -3 -4 -6 -4 -5 -6 -1 4 3 2 0 0 -0 -1 -1 0 -0
4 4 5 4 3 3 3 -1 0 1 1 4 3 3 1 2 1 -4 -5 -4 -3 -7 -1 -5 -1 0 4 1 -2 -4 -4 1 0 -0 1 4 0 2 1 1 -0 -1 -1 -1 -1
4 4 4 3 3 3 -1 -3 2 2 4 3 2 -1 -1 2 -2 -4 -7 -5 -3 -5 -4 -7 -3 3 3 3 -0 -3 -2 1 1 -8 -4 -2 2 1 2 -0 -1 -2 -2 -2 -2
4 3 3 3 2 2 -2 2 1 4 3 2 -0 -0 -3 -2 -4 -4 -4 -2 -4 -2 -2 -3 -2 2 2 -0 -1 -1 2 1 -4 -2 -4 -2 -1 -2 -2 -2 -2 -3 -3 -3 -3
3 2 3 2 2 -2 -0 -2 1 3 3 1 -0 -0 -1 -1 -4 -6 -2 1 0 0 0 -10 -4 -2 -1 -5 -5 -2 -1 1 1 -0 -0 -2 -3 -4 -2 -3 -4 -4 -4 -4 -4
1 3 2 2 1 -3 -6 -1 3 3 3 2 0 0 -1 -2 -2 -3 -1 1 1 1 -4 -4 -5 -7 -4 -1 -3 -2 1 1 0 -1 0 -0 -1 -2 -3 -4 -4 -4 -4 -5 -4
2 2 1 1 2 -2 -1 0 2 2 2 1 0 1 -0 -2 -2 -2 -1 1 2 1 -5 -6 -3 -3 -4 -3 -5 -5 1 1 0 0 -2 -1 -2 -3 -3 -4 -5 -5 -5 -5 -5
2 2 0 -0 -0 -0 1 1 1 1 2 2 1 0 -2 -3 -2 -2 -1 1 2 1 3 2 -1 -1 -1 -1 -5 -1 0 0 -0 -2 -2 -1 -2 -1 -3 -4 -5 -5 -6 -6 -6
0 1 1 2 2 1 1 2 1 1 0 1 1 -0 -1 -1 -4 -2 -1 0 1 1 -1 -1 -5 -9 -4 -3 -3 -3 -2 -1 -1 -2 -2 -3 -3 -2 -4 -5 -6 -6 -6 -6 -6
1 1 -3 1 1 2 2 2 2 3 2 1 0 1 -2 -0 -1 1 -1 -1 -1 -3 -5 -3 -5 -9 -2 -4 -11 -7 -3 -2 -1 -2 -2 -3 -4 -4 -5 -6 -6 -6 -7 -7 -7
0 0 -0 2 1 1 1 2 2 2 2 3 1 1 -0 0 1 2 2 -1 -1 -3 -3 -3 -4 -3 -5 -9 -8 -4 -5 -2 -3 -3 -3 -3 -3 -6 -5 -6 -6 -7 -7 -7 -8
Height
855 851 847 843 840 836 833 830 827 823 820 817 813 810 806 803 799 798 798 799 798 795 790 788 785 784 785 784 783 781 783 774 753 757 751 744 742 741 741 735 734 727 720 718 715
855 852 848 844 840 836 832 829 825 822 819 816 811 807 805 800 798 796 798 796 793 791 787 787 786 786 788 785 784 787 786 765 763 759 758 749 752 756 753 741 726 733 718 719 717
854 852 849 844 839 835 831 827 824 820 817 813 809 806 803 799 798 797 796 794 793 791 790 789 788 788 789 787 789 787 783 777 769 767 766 763 753 760 757 740 735 739 729 726 720
853 850 846 842 837 833 829 825 822 818 814 810 807 805 801 799 799 796 795 795 793 792 790 791 792 794 796 795 789 796 786 782 773 769 766 763 756 751 754 729 741 738 732 723 722
854 850 846 841 836 832 827 823 819 816 812 808 804 803 801 802 799 796 796 795 794 793 792 795 796 795 799 794 792 790 782 776 771 766 762 759 756 747 735 733 736 733 726 722 715
854 850 846 841 835 830 825 820 816 812 808 805 804 803 803 804 797 797 796 794 793 792 791 791 791 791 792 789 787 778 777 770 764 758 758 757 750 747 732 733 728 726 719 713 710
853 849 844 840 835 827 822 817 812 806 803 802 800 801 803 801 796 796 795 793 790 788 787 785 785 787 785 785 775 774 775 762 750 751 751 746 752 741 727 719 716 715 711 702 697
853 849 845 839 833 827 819 813 808 804 802 799 796 798 800 793 793 792 790 788 787 785 783 781 780 783 783 777 774 772 772 770 736 742 740 747 743 724 714 709 706 704 704 698 690
850 847 843 839 834 827 820 811 806 801 799 798 799 799 796 792 791 788 786 783 781 780 778 777 778 779 778 780 787 772 769 757 744 723 734 737 730 709 701 700 696 694 692 689 684
851 847 842 836 830 824 817 809 803 801 799 799 799 802 795 794 790 786 783 782 781 779 778 777 779 780 783 788 801 762 762 753 747 716 728 726 718 698 692 693 686 683 683 680 676
850 846 841 836 830 823 815 808 810 806 805 810 809 807 798 791 789 784 781 780 779 780 783 779 786 784 768 770 764 764 761 755 727 720 726 717 702 683 683 685 676 671 670 668 665
850 845 840 834 827 822 820 820 826 828 819 805 803 802 795 793 789 780 780 781 780 781 779 789 790 761 760 759 758 754 756 741 720 713 716 706 689 677 670 668 662 661 659 659 655
849 845 839 833 828 824 822 824 822 821 828 806 799 797 792 792 787 781 778 777 780 783 781 795 765 757 756 751 750 743 747 737 733 706 709 703 686 671 655 655 653 655 654 652 650
847 841 838 834 829 827 824 823 823 822 849 801 796 793 791 791 789 778 775 778 778 789 777 787 762 754 752 754 748 749 731 727 726 731 719 705 698 660 656 665 668 664 662 660 655
845 840 837 833 830 827 827 823 820 822 831 796 794 788 789 793 789 777 775 774 781 776 790 776 760 755 756 747 741 743 729 731 723 724 724 705 707 674 674 679 680 673 667 662 654
842 839 835 830 828 826 825 821 820 834 827 797 791 789 790 786 784 776 777 777 775 782 779 764 752 758 749 738 738 733 738 728 743 755 765 701 694 678 690 690 685 678 672 661 652
838 834 831 826 824 823 821 822 836 827 797 793 788 789 793 789 785 788 795 804 801 801 809 762 756 740 739 758 753 761 779 775 773 781 734 678 684 682 694 691 689 682 674 664 657
835 831 825 822 819 819 820 831 839 816 807 789 790 789 796 786 788 804 807 806 790 808 785 805 767 751 735 746 760 763 766 739 736 733 702 680 700 681 689 689 689 685 676 668 660
830 826 822 818 819 821 827 853 813 800 788 792 796 807 803 787 803 806 818 807 788 793 801 814 780 736 734 732 745 760 758 734 723 777 756 715 679 683 680 686 686 684 677 671 663
825 820 816 814 817 820 833 814 807 789 787 792 806 801 812 803 811 810 801 778 786 774 776 785 770 735 734 740 740 742 729 730 760 749 755 720 702 706 697 695 691 687 681 675 668
823 819 813 813 816 823 823 823 800 785 785 796 798 797 797 797 807 817 789 764 764 764 767 803 785 760 751 764 765 748 742 726 724 728 724 725 719 717 706 704 699 694 687 680 672
822 819 812 813 820 823 831 807 789 782 782 783 790 787 788 791 793 798 779 764 756 758 781 778 785 794 763 732 740 740 727 722 727 734 721 716 710 710 708 706 702 698 691 684 677
822 813 811 813 806 813 798 794 786 780 780 782 782 779 779 786 787 781 769 754 753 758 779 780 775 772 760 751 748 753 722 724 723 722 729 721 713 709 705 705 705 702 696 690 682
823 812 811 809 804 802 792 784 780 774 771 770 770 773 783 782 775 770 764 752 748 751 746 749 754 753 749 739 760 734 722 721 724 734 727 716 708 702 709 709 707 704 700 695 690
824 809 803 799 790 792 788 780 773 773 773 769 766 767 768 769 779 766 754 750 747 745 749 754 771 787 756 745 742 738 732 723 723 726 725 722 719 709 713 715 712 708 703 698 694
821 814 804 792 788 782 777 768 767 758 765 762 761 748 760 753 756 743 753 751 747 753 757 753 765 782 740 742 775 758 725 719 712 717 719 718 719 717 717 717 712 711 707 702 697
812 807 802 784 784 781 773 762 757 759 752 749 746 746 749 742 737 728 732 737 739 749 748 752 758 756 759 765 762 738 730 714 719 718 719 717 711 718 718 720 717 712 711 709 704
Wind_Speed
23 23 21 22 22 23 23 24 23 22 22 23 24 23 23 22 18 5 7 7 9 13 14 17 18 19 9 2 2 1 5 13 28 18 21 22 19 14 5 18 5 11 11 10 30
22 23 24 24 24 24 24 23 23 23 23 23 22 21 20 17 14 4 8 11 12 14 20 17 7 10 3 3 3 2 6 21 13 14 17 22 21 14 13 20 26 16 26 26 27
19 23 24 24 25 25 24 24 23 24 23 22 20 19 18 16 2 3 9 10 9 13 16 13 10 6 3 2 3 3 10 11 18 19 19 24 29 13 17 24 19 15 19 19 26
20 24 26 27 27 26 26 26 26 25 24 22 20 15 14 4 3 2 8 9 8 11 13 8 5 4 2 4 3 5 7 10 15 17 19 22 22 25 19 32 18 19 24 27 18
25 24 26 29 30 29 29 29 29 27 25 23 16 9 5 4 4 3 9 11 12 12 4 3 3 4 4 4 6 14 10 13 16 18 18 20 22 28 29 25 21 23 22 21 21
26 24 28 29 31 31 32 30 29 27 23 15 10 4 2 1 1 6 11 13 13 9 5 4 4 5 6 6 6 5 10 16 15 20 18 21 25 23 29 26 23 21 25 25 26
24 25 27 29 30 31 33 31 30 28 20 11 12 3 2 6 2 7 17 16 14 13 4 14 10 5 4 6 12 12 9 19 24 18 18 21 21 27 26 24 22 19 20 21 21
24 24 26 29 31 31 32 31 31 20 12 17 5 9 5 3 7 13 24 20 15 15 19 21 21 6 6 5 5 4 4 5 17 3 11 6 20 25 26 26 24 21 15 18 22
22 23 24 27 30 33 27 34 22 12 13 2 3 3 4 3 6 19 17 14 20 17 12 11 5 6 2 2 5 3 7 16 19 16 11 8 20 25 24 24 24 19 16 14 17
24 25 25 26 28 25 26 27 15 6 11 3 4 1 2 4 13 23 19 16 7 6 7 1 1 3 1 3 4 12 15 18 21 28 22 22 24 31 27 25 27 24 20 20 20
24 25 27 29 31 16 24 6 9 6 9 1 8 5 5 12 19 9 19 6 2 2 3 3 3 7 11 10 12 14 15 21 30 26 19 22 24 29 26 22 25 24 21 20 21
22 25 28 30 31 8 15 6 3 5 8 7 8 7 14 9 7 6 2 2 1 7 3 4 8 11 6 7 11 17 17 26 27 17 10 26 32 28 28 26 24 23 21 19 19
23 24 27 30 25 13 5 7 8 2 1 6 5 4 4 2 5 6 1 1 4 4 4 5 11 9 11 12 16 21 12 19 20 29 19 17 21 16 18 14 14 16 18 17 16
23 24 24 29 8 21 3 14 10 3 4 4 3 3 2 4 5 5 3 3 3 5 4 6 5 8 11 14 14 17 6 13 21 15 14 8 15 18 10 9 15 14 14 13 17
22 25 24 23 18 7 6 21 2 3 5 3 4 2 5 2 7 1 2 1 7 8 5 10 8 13 15 10 10 12 12 15 20 18 14 5 7 5 9 9 17 17 17 19 13
23 24 24 24 17 9 14 9 3 5 6 4 3 3 5 2 4 5 3 5 3 2 3 15 5 3 7 7 6 14 9 16 2 2 1 7 5 1 4 10 14 16 17 19 18
24 24 24 16 7 12 14 2 4 3 1 4 4 3 7 5 4 2 3 6 1 5 4 6 4 4 4 7 6 8 6 4 5 4 6 9 11 4 8 11 12 17 18 17 17
27 24 29 27 13 7 3 5 2 3 5 2 3 8 6 1 3 4 5 5 2 3 4 1 10 2 4 3 7 2 5 3 7 5 17 12 4 4 8 7 11 13 14 16 17
27 21 20 9 5 3 4 2 6 7 4 3 6 1 4 2 2 4 4 4 5 8 4 1 7 6 14 7 6 6 0 4 5 1 3 3 3 4 15 17 15 15 15 16 16
18 11 10 6 6 2 3 8 6 5 4 4 7 5 5 3 2 1 3 5 5 10 3 4 9 6 3 4 2 6 2 3 2 5 6 5 4 4 16 18 18 17 16 16 16
7 3 3 8 5 3 4 8 6 6 5 6 6 4 9 3 5 3 6 4 5 4 3 4 5 8 6 2 5 4 2 4 3 2 3 5 5 3 8 13 15 15 16 15 14
1 4 6 10 1 1 3 6 5 5 6 9 5 8 8 6 4 6 9 8 6 5 4 6 4 4 11 11 5 5 3 2 3 5 4 3 6 1 6 10 12 14 15 14 13
3 3 8 5 5 4 4 6 5 7 8 8 7 10 8 6 5 9 5 8 13 5 5 4 3 5 10 6 5 2 3 5 5 3 4 2 5 2 8 11 11 12 13 13 15
3 4 1 3 1 4 9 9 9 6 8 7 9 8 4 6 10 6 8 5 7 6 12 8 5 11 10 13 2 14 15 13 5 2 3 6 10 7 10 11 12 13 12 11 11
2 5 2 8 9 14 12 16 14 9 7 8 3 14 11 7 3 11 15 18 15 17 6 6 4 3 12 18 15 17 17 15 6 5 4 4 6 7 5 7 10 9 11 12 12
4 3 2 9 9 17 11 12 22 25 9 5 17 20 12 14 12 18 8 7 6 2 5 3 4 2 20 12 4 5 9 9 7 3 6 6 7 2 2 4 9 9 11 11 12
6 6 4 11 11 9 15 23 22 17 21 19 17 15 15 21 23 23 18 11 6 6 7 5 2 1 6 3 5 4 5 4 3 3 3 3 4 2 1 4 7 10 9 9 10
Wind_Direction
1 359 355 352 348 347 344 342 340 338 336 334 331 329 329 332 335 44 37 21 353 345 354 359 6 5 354 359 338 201 242 250 246 252 270 300 304 307 269 281 266 278 280 310 314
358 357 355 351 346 343 340 339 337 335 332 330 329 329 328 332 328 48 9 360 9 20 21 13 1 351 14 331 313 198 227 246 283 292 294 307 306 328 313 305 281 286 285 298 311
356 355 353 348 346 341 340 338 336 333 330 330 330 331 329 328 359 32 8 15 17 8 11 7 3 8 5 323 251 261 248 303 297 306 306 301 296 313 301 280 282 318 318 325 320
358 353 352 347 344 341 338 337 332 331 330 327 324 323 322 313 307 78 13 6 349 342 355 353 345 349 243 222 280 295 277 273 278 285 288 283 295 286 277 274 296 294 300 299 294
351 351 350 346 343 340 337 334 332 331 329 324 316 318 337 12 259 355 345 350 347 336 323 259 222 201 211 220 265 243 254 253 268 276 280 286 279 279 276 284 280 274 276 283 291
349 350 349 347 342 339 337 333 332 329 326 335 337 326 41 352 56 337 327 330 327 317 271 198 225 234 251 235 217 243 266 274 269 268 273 271 272 280 286 287 279 273 272 271 275
353 351 347 345 342 336 334 331 330 327 323 299 308 251 108 227 217 321 338 328 322 301 265 276 252 189 196 266 249 251 279 290 274 265 258 269 280 271 273 275 276 272 267 264 260
350 346 344 344 340 337 332 328 329 325 328 320 298 181 236 233 261 304 327 318 315 306 279 279 266 218 190 250 303 256 262 276 285 174 262 195 268 266 263 266 264 265 264 269 265
346 345 343 342 341 336 332 332 330 339 330 94 113 159 258 298 293 315 318 307 308 301 290 279 219 211 202 229 317 236 275 286 296 288 269 256 276 272 266 266 270 262 252 252 271
343 345 345 343 341 340 336 335 328 341 18 100 48 44 303 293 313 310 309 301 266 298 329 286 224 245 347 119 247 291 294 290 281 289 301 281 277 270 271 267 268 267 262 261 256
342 343 343 341 342 340 350 360 8 357 20 245 278 260 275 305 298 277 302 297 252 234 239 236 238 242 259 213 250 267 274 276 281 288 285 285 283 275 276 270 264 262 258 252 250
339 339 341 341 342 334 8 59 58 279 313 287 254 250 269 270 292 288 241 314 276 271 265 346 241 269 247 252 262 271 276 280 287 284 299 298 284 284 282 273 265 262 259 251 252
337 337 338 340 337 346 38 49 344 278 213 289 236 248 250 272 268 279 209 264 249 260 200 182 257 293 281 277 303 283 267 278 276 305 301 285 282 281 289 276 270 270 271 261 248
336 335 338 341 351 334 325 344 336 134 54 272 283 271 325 300 278 251 243 239 312 265 292 235 273 269 276 285 294 283 232 280 295 303 296 0 290 309 301 25 13 349 341 321 316
329 332 336 339 307 305 314 335 148 159 354 226 265 277 326 135 282 309 317 268 233 245 78 257 285 292 296 273 291 264 295 281 280 275 285 281 236 291 28 355 345 334 327 324 318
327 328 331 332 317 297 317 336 135 37 257 331 272 279 327 227 249 298 355 22 291 292 278 257 253 240 237 290 258 287 314 306 7 102 7 255 209 282 14 334 325 326 326 328 331
325 322 319 311 278 303 322 67 15 152 360 269 278 333 322 270 293 34 345 318 199 15 314 304 247 260 209 350 342 40 21 326 340 350 239 308 301 300 1 348 330 328 325 330 335
323 315 319 311 274 279 339 43 150 245 230 9 276 296 249 308 262 323 340 294 241 100 299 297 314 235 193 172 239 289 153 270 305 313 300 312 244 169 43 3 342 331 326 331 337
321 302 305 299 218 275 72 58 224 211 186 227 331 307 280 229 194 17 200 240 241 177 175 307 267 273 284 286 129 279 230 228 267 294 355 275 274 182 351 353 350 342 337 337 337
318 293 268 225 190 131 89 248 237 220 160 128 189 193 238 247 342 114 201 204 251 194 174 272 294 277 326 359 315 173 323 285 357 311 301 285 287 281 333 339 341 341 342 339 338
322 313 237 174 148 70 226 227 267 248 166 167 218 242 237 251 210 217 253 263 195 206 175 145 213 285 12 214 209 341 270 239 252 230 281 306 281 264 324 334 334 338 341 338 341
9 280 189 162 253 197 209 208 228 245 201 227 234 235 218 186 241 231 229 235 174 144 203 207 224 274 242 275 196 173 241 261 248 292 238 269 280 345 347 340 341 339 343 344 350
279 259 175 153 242 241 256 255 250 235 203 202 232 220 202 211 230 220 224 232 252 234 210 206 258 310 324 355 3 163 226 255 304 270 228 261 272 12 9 354 345 342 346 346 354
302 293 235 208 248 268 278 272 270 257 248 223 242 215 183 221 226 258 239 254 222 215 229 268 226 234 254 267 229 294 290 293 252 226 275 245 296 344 354 343 342 344 344 348 353
207 250 183 273 259 258 270 277 275 271 223 216 235 222 212 238 212 236 258 265 267 265 265 195 234 194 262 265 273 263 269 278 219 219 210 271 296 318 346 336 333 333 343 352 358
267 274 245 269 277 282 262 275 284 289 273 243 238 245 230 243 219 265 220 211 216 261 149 191 259 131 290 277 190 259 254 241 246 200 253 273 292 171 72 351 343 352 351 353 353
273 292 277 286 286 276 277 276 280 294 284 282 289 288 272 262 252 252 264 238 222 189 191 174 173 336 263 332 332 338 231 200 224 211 185 249 242 4 42 28 348 346 355 351 350